Terminal Aerodrome Forecast
Issued by NWS Denver/Boulder, CO

Home | Current Version | Previous Version | Text Only | Print | Product List | Glossary On
Versions: 1 2 3 4 5 6 7 8 9 10 11 12 13 14 15 16 17 18 19 20 21 22 23 24 25 26 27 28 29 30 31 32 33 34 35 36 37 38 39 40 41 42 43 44 45 46 47 48 49 50
000
FTUS45 KBOU 210303 AAB
TAFDEN
TAF AMD
KDEN 210303Z 2103/2206 10008KT P6SM VCSH SCT070 BKN090
     FM210600 12007KT P6SM BKN060 OVC100
     FM211500 16009KT P6SM VCSH SCT040 OVC060
     FM211800 07010KT P6SM SCT040 BKN060 PROB30 2121/2203 -SHRA
      BKN040
     FM220400 15010KT P6SM SCT050 BKN080=

USA.gov is the U.S. government's official web portal to all federal, state and local government web resources and services.